Terug naar catalogus

ONEWEB-0393

ActiefCommunicatiePO
NORAD 50473·PAYLOAD·🇬🇧 United Kingdom

Gelanceerd Dec 27, 2021 vanaf Baikonur Cosmodrome

Loading…

Volgende Passages (komende 24 uur)

TLE

VersSource: CelesTrak SupGP

Epoch: Sep 14, 2026, 19:48 UTC

1 50473C 21132E   26257.82553655 -.00001718  00000+0 -44311-2 0  2579
2 50473  87.9198 348.0628 0001947 107.0211 314.1223 13.17648090    13

Volg ONEWEB-0393 in realtime met AllMySat

Download on the App Store